Flag for U.S.A. Weather past 2 weeks in New Orleans, Louisiana, U.S.A.

Now
74 °F

Sunny.


Feels Like: 77 °F
Forecast: 55 / 79 °F
Wind: 9 mph from West

Location: Lakefront Airport

Current Time: Oct 25, 2014 at 4:19:03 PM

Latest Report: Oct 25, 2014 at 3:53 PM


Visibility: 10 mi

Pressure: 30.06 "Hg

Humidity: 56%

Dew point: 57 °F

Location of New OrleansLocation

Historic Weather in New Orleans — Graph

°F

New Orleans temperature yesterday

Maximum temperature yesterday: 73 °F (at 3:53 PM)
Minimum temperature yesterday: 62 °F (at 5:53 AM)
Average temperature yesterday: 68 °F

Past Weeks' High & Low Weather Summary

 TemperatureHumidityPressure
High88 °F (Oct 13, 12:53 PM)91% (Oct 12, 3:53 AM)30.15 "Hg (Oct 12, 3:53 AM)
Low60 °F (Oct 16, 4:53 AM)36% (Oct 15, 2:53 PM)29.74 "Hg (Oct 13, 4:53 PM)
Average73 °F64%29.99 "Hg
* Reported Oct 10 2:53 PM — Oct 25 2:53 PM, New Orleans, Weather by CustomWeather, © 2014

Note: Actual official high and low records may vary slightly from our data, if they occured in-between our weather recording intervals... More about our weather records

Advertising

New Orleans weather history for previous 24 hours

 ConditionsComfort  
Time TempWeatherWind HumidityBarometerVisibility
2:53 PM
Oct 25
74 °FSunny.5 mph50%30.07 "Hg10 mi
1:53 PM73 °FSunny.8 mph51%30.09 "Hg10 mi
12:53 PM72 °FSunny.7 mph53%30.12 "Hg10 mi
11:53 AM71 °FSunny.5 mph55%30.14 "Hg10 mi
10:53 AM69 °FSunny.6 mph57%30.15 "Hg10 mi
9:53 AM67 °FSunny.6 mph61%30.15 "Hg10 mi
8:53 AM66 °FSunny.8 mph61%30.14 "Hg10 mi
7:53 AM65 °FClear.8 mph63%30.12 "Hg10 mi
6:53 AM64 °FClear.9 mph68%30.11 "Hg10 mi
5:53 AM65 °FClear.10 mph68%30.10 "Hg10 mi
4:53 AM66 °FClear.16 mph61%30.08 "Hg10 mi
3:53 AM67 °FClear.16 mph61%30.07 "Hg10 mi
2:53 AM67 °FClear.15 mph59%30.07 "Hg10 mi
1:53 AM67 °FClear.15 mph59%30.08 "Hg10 mi
12:53 AM68 °FClear.14 mph59%30.08 "Hg10 mi
11:53 PM
Oct 24
68 °FClear.12 mph59%30.08 "Hg10 mi
10:53 PM70 °FClear.14 mph53%30.08 "Hg10 mi
9:53 PM71 °FClear.13 mph51%30.08 "Hg10 mi
8:53 PM71 °FClear.12 mph51%30.07 "Hg10 mi
7:53 PM71 °FClear.9 mph59%30.06 "Hg10 mi
6:53 PM72 °FSunny.10 mph53%30.04 "Hg10 mi
5:53 PM73 °FSunny.10 mph51%30.03 "Hg10 mi
4:53 PM73 °FSunny.10 mph48%30.02 "Hg10 mi
Weather by CustomWeather, © 2014

See weather overviewHow to use our weather pages